Location: Althorst
(53.6379°N, 10.7715°E)
Time: 19:19:44
(UTC+00:00)

NOSS 3-1 (C) - Pass Details

Date: 10 December 2019
Orbit: 763 x 1445 km, 63.4° (Epoch: 19 January)

Event Time Altitude Azimuth Distance (km) Brightness Sun altitude
Rises 15:56:34 0° 295° (WNW) 3,637 7.1 -8.2°
Reaches altitude 10° 15:59:09 10° 303° (WNW) 2,784 6.3 -8.5°
Maximum altitude 16:05:23 40° 13° (NNE) 1,600 4.4 -9.4°
Enters shadow 16:12:23 11° 80° (E) 3,170 5.5 -10.3°
